[[{"header":{"parameterUnit":"m.s-1","parameterCategory":1,"la1":30.2991,"la2":30.254,"lo1":-89.0895,"lo2":-89.0444,"dy":0.0017,"dx":0.0017,"nx":28,"ny":28,"refTime":"2024-05-27T21:00:00:Z","depth":0,"parameterNumber":2,"parameterNumberName":"U-component_of_WINDS"},"data":[0,0,0,0,0,0,0,0,0,0,0,0,0,0,0,0,0,0,0,0,0,0,0,0,0,0,0,0,0,0,0,0,0,0,0,0,0,0,0,0,0,0,0,0,0,0,0,0,0,0,0,0,0,0,0,0,0,0,1.2621,1.2621,0,1.2563,1.2562,1.2562,1.251,1.2509,1.2509,1.2508,1.2449,1.2448,1.2447,0,0,0,0,0,0,0,0,0,0,0,0,0,1.2691,1.269,1.2621,1.2621,1.262,1.2563,1.2562,1.2562,1.251,1.2509,1.2509,1.2508,1.245,1.2448,1.2447,0,0,0,0,0,0,0,0,0,0,0,0,0,1.265,1.269,1.2621,1.2587,1.2584,1.2563,1.2562,1.2561,1.251,1.2509,1.2508,1.2508,1.245,1.2449,1.2447,1.2456,0,0,1.2443,1.2442,0,0,0,0,0,0,0,0,1.2652,1.2647,1.2593,1.259,1.2585,1.2543,1.2565,1.2526,1.251,1.2538,1.2508,1.2507,1.2481,1.2477,1.2468,1.2453,1.2451,1.2442,1.2442,1.2441,1.244,0,0,0,0,0,0,0,1.2655,1.2649,1.2598,1.2592,1.2588,1.2576,1.2569,1.2558,1.2516,1.2536,1.2532,1.2526,1.2479,1.247,1.2466,1.245,1.2442,1.2441,1.244,1.244,1.2444,1.2445,0,0,0,0,0,0,1.2663,1.2652,1.26,1.2596,1.2617,1.2576,1.2568,1.2557,1.2515,1.2508,1.2526,1.2523,1.2473,1.2468,1.2464,1.2474,1.2441,1.2439,1.2439,1.2443,1.2444,1.2445,0,0,0,0,0,0,1.2664,1.2659,1.2602,1.2623,1.2615,1.2575,1.2564,1.2557,1.2547,1.2508,1.2501,1.2524,1.2472,1.2466,1.2459,1.2471,1.2439,1.2437,1.2442,1.2443,1.2445,1.2493,0,0,0,0,0,0,1.2667,1.266,1.2661,1.2624,1.2614,1.2597,1.2565,1.2556,1.2545,1.254,1.2505,1.2498,1.2471,1.2462,1.2458,1.2469,1.2436,1.244,1.2442,1.2444,1.249,1.2496,1.2501,0,0,0,0,0,1.2669,1.2677,1.2662,1.2656,1.2616,1.2598,1.2593,1.2561,1.2546,1.2548,1.2524,1.2499,1.2471,1.2462,1.2457,1.2467,1.244,1.2442,1.2444,1.2488,1.2495,1.2501,0,0,0,0,0,0,1.2716,1.2671,1.2654,1.2649,1.2628,1.2589,1.2591,1.2569,1.2552,1.2549,1.2511,1.2503,1.2501,1.2483,1.2474,1.2476,1.2452,1.2454,1.2487,1.2494,1.2499,1.2503,1.2435,0,0,0,0,0,1.2726,1.2714,1.2676,1.2676,1.2666,1.2631,1.2622,1.26,1.2577,1.2567,1.2542,1.2521,1.2508,1.25,1.2485,1.2488,1.2481,1.2493,1.2499,1.2503,1.2505,1.2508,1.2514,1.2453,1.2453,1.2453,0,0,1.2745,1.2719,1.2714,1.2684,1.2665,1.2656,1.2623,1.2614,1.2608,1.2566,1.2558,1.254,1.2514,1.2513,1.2511,1.2498,1.2521,1.2506,1.251,1.2509,1.2511,1.2517,1.2522,1.2454,1.2454,1.2454,0,0,1.2776,1.2755,1.2754,1.2736,1.2709,1.2686,1.2686,1.2652,1.2638,1.263,1.26,1.2593,1.2569,1.2553,1.2542,1.2573,1.255,1.2569,1.2597,1.2601,1.2606,1.261,1.2623,1.2628,1.2571,1.2571,1.2571,0,1.2804,1.2788,1.2756,1.2749,1.2738,1.2702,1.2702,1.2686,1.2656,1.265,1.2636,1.2609,1.2589,1.2585,1.2593,1.2584,1.2585,1.2573,1.2608,1.2612,1.2615,1.2627,1.2632,1.2574,1.2574,1.2573,1.2573,0,1.2825,1.2815,1.2818,1.279,1.278,1.2776,1.2745,1.2738,1.2719,1.2698,1.2692,1.2668,1.2649,1.2647,1.2626,1.2641,1.2634,1.2615,1.259,1.2624,1.2635,1.2639,1.2578,1.2577,1.2576,1.2575,0,0,1.2881,1.2839,1.284,1.2829,1.2798,1.279,1.2787,1.2769,1.2765,1.2747,1.2744,1.2728,1.2711,1.2699,1.2677,1.268,1.2709,1.2661,1.266,1.2672,1.2727,1.2742,1.2747,1.2695,1.2695,1.2696,1.273,0,1.2908,1.2899,1.2872,1.2872,1.2864,1.2831,1.2829,1.2811,1.2793,1.2784,1.2764,1.2754,1.2732,1.2724,1.2726,1.2705,1.272,1.2702,1.2693,1.2693,1.27,1.2753,1.2767,1.28,1.2733,1.2734,1.2734,0,1.2937,1.2922,1.2922,1.2895,1.289,1.2888,1.2872,1.2864,1.2844,1.2831,1.282,1.2796,1.2793,1.2771,1.2768,1.2757,1.2752,1.2742,1.2742,1.274,1.2716,1.2753,1.281,1.2815,1.274,1.274,1.2739,0,1.298,1.2959,1.2957,1.2949,1.2916,1.2917,1.2903,1.2883,1.2875,1.2862,1.2857,1.2843,1.2835,1.2826,1.2801,1.2787,1.2802,1.2776,1.2792,1.2793,1.2795,1.2795,1.2853,1.2792,1.2792,1.2792,1.2792,0,1.3012,1.3014,1.2977,1.2975,1.2977,1.2947,1.295,1.2934,1.2917,1.2913,1.2885,1.2882,1.2849,1.2843,1.2824,1.2825,1.2822,1.2812,1.2807,1.2815,1.2816,1.2811,1.2808,1.2793,1.2793,1.2793,1.2792,0,1.3059,1.3034,1.303,1.3002,1.2995,1.2998,1.2974,1.2973,1.2954,1.2951,1.2948,1.2919,1.2912,1.2886,1.2871,1.2859,1.2867,1.2856,1.2874,1.287,1.2887,1.2887,1.2944,1.295,1.2885,1.2885,1.2886,0,1.3082,1.3083,1.3055,1.3051,1.304,1.3033,1.3026,1.2998,1.2992,1.2972,1.2974,1.2964,1.2955,1.2945,1.2923,1.2913,1.2903,1.2924,1.2901,1.291,1.2905,1.2905,1.2906,1.2928,1.2929,1.293,1.2931,0,1.3125,1.3114,1.3105,1.3093,1.3086,1.3074,1.3062,1.306,1.3029,1.3025,1.3017,1.301,1.2997,1.2988,1.2976,1.2963,1.2943,1.2938,1.2942,1.2949,1.296,1.2956,1.2888,1.2937,1.2936,1.2936,1.2935,1.2935,1.3161,1.3162,1.3144,1.3136,1.3124,1.3114,1.3112,1.3095,1.3088,1.3075,1.306,1.3055,1.3039,1.3019,1.3009,1.3006,1.2994,1.2998,1.3,1.3001,1.3006,1.2961,1.3004,1.3003,1.3003,1.3003,1.3003,0,1.3204,1.3192,1.3185,1.317,1.3164,1.3146,1.3132,1.3129,1.3125,1.3112,1.3104,1.3098,1.309,1.307,1.3061,1.3063,1.3053,1.3061,1.3061,1.3059,1.3016,1.3015,1.307,1.3069,1.3069,1.3069,1.3069,1.3069,1.3226,1.3227,1.3214,1.321,1.3198,1.3193,1.3187,1.3179,1.3168,1.3162,1.3156,1.3143,1.3128,1.3119,1.3112,1.3107,1.3105,1.3117,1.3108,1.3068,1.3062,1.3056,1.3054,1.3116,1.3117,1.3152,1.3152,1.3152]},{"header":{"parameterUnit":"m.s-1","parameterCategory":1,"la1":30.2991,"la2":30.254,"lo1":-89.0895,"lo2":-89.0444,"dy":0.0017,"dx":0.0017,"nx":28,"ny":28,"refTime":"2024-05-27T21:00:00:Z","depth":0,"parameterNumber":3,"parameterNumberName":"V-component_of_WINDS"},"data":[0,0,0,0,0,0,0,0,0,0,0,0,0,0,0,0,0,0,0,0,0,0,0,0,0,0,0,0,0,0,0,0,0,0,0,0,0,0,0,0,0,0,0,0,0,0,0,0,0,0,0,0,0,0,0,0,0,0,0.4825,0.4827,0,0.4989,0.4991,0.4993,0.5068,0.5068,0.5068,0.5068,0.5239,0.5243,0.5248,0,0,0,0,0,0,0,0,0,0,0,0,0,0.4581,0.4585,0.4825,0.4827,0.4829,0.4989,0.4991,0.4993,0.5068,0.5068,0.5068,0.5068,0.5237,0.5243,0.5248,0,0,0,0,0,0,0,0,0,0,0,0,0,0.471,0.4587,0.4825,0.4886,0.4893,0.4988,0.4991,0.4994,0.5068,0.5068,0.5068,0.5068,0.5235,0.5242,0.5249,0.5297,0,0,0.5271,0.5274,0,0,0,0,0,0,0,0,0.4703,0.4719,0.4875,0.4882,0.489,0.5008,0.4968,0.5095,0.5068,0.5002,0.5068,0.5068,0.5162,0.5175,0.5207,0.5305,0.5312,0.5271,0.5276,0.5279,0.5281,0,0,0,0,0,0,0,0.4694,0.4713,0.489,0.4877,0.4886,0.4906,0.4924,0.4992,0.5081,0.5008,0.5014,0.5032,0.5167,0.52,0.5211,0.5315,0.5271,0.5277,0.5282,0.5284,0.5461,0.5462,0,0,0,0,0,0,0.4675,0.4705,0.4885,0.4895,0.4794,0.4911,0.4931,0.497,0.5081,0.5097,0.5032,0.5035,0.5188,0.5203,0.5218,0.5282,0.5279,0.5285,0.5289,0.5461,0.5462,0.5462,0,0,0,0,0,0,0.4669,0.469,0.4878,0.4802,0.4827,0.4915,0.4959,0.4974,0.5007,0.5099,0.5116,0.5049,0.5188,0.5208,0.5277,0.5289,0.5288,0.5295,0.546,0.5461,0.5462,0.5409,0,0,0,0,0,0,0.4662,0.4687,0.4706,0.4801,0.4831,0.4933,0.4959,0.4977,0.5018,0.5024,0.512,0.5135,0.519,0.5266,0.5284,0.5298,0.53,0.546,0.5461,0.5462,0.541,0.5408,0.5406,0,0,0,0,0,0.4653,0.4685,0.4706,0.4727,0.4855,0.4934,0.4951,0.5012,0.5019,0.5039,0.5098,0.5132,0.5284,0.5272,0.5293,0.531,0.5459,0.546,0.5462,0.5411,0.5408,0.5406,0,0,0,0,0,0,0.459,0.4698,0.4723,0.4787,0.485,0.4946,0.4973,0.5007,0.507,0.5073,0.5146,0.5167,0.523,0.5277,0.5262,0.5362,0.5375,0.538,0.5329,0.5328,0.5325,0.5313,0.5306,0,0,0,0,0,0.4583,0.4636,0.4729,0.4776,0.4807,0.4884,0.4921,0.4962,0.5031,0.5059,0.5123,0.519,0.5253,0.5293,0.5355,0.5417,0.544,0.5439,0.5437,0.5435,0.5439,0.5476,0.5477,0.5466,0.5466,0.5466,0,0,0.457,0.4636,0.4666,0.4765,0.4819,0.4875,0.4906,0.4963,0.5005,0.5068,0.5137,0.5186,0.5266,0.5331,0.5363,0.5372,0.5447,0.5436,0.5433,0.5439,0.5477,0.5478,0.5479,0.5466,0.5466,0.5466,0,0,0.4575,0.4629,0.4675,0.4728,0.4809,0.486,0.4871,0.4962,0.4997,0.5067,0.5115,0.5167,0.5273,0.5328,0.537,0.5395,0.543,0.5414,0.5403,0.5439,0.5439,0.5441,0.5451,0.5453,0.5417,0.5417,0.5417,0,0.4549,0.4632,0.4695,0.4749,0.4792,0.485,0.4897,0.4946,0.5044,0.5073,0.5081,0.5216,0.5274,0.5353,0.5359,0.5391,0.5407,0.5404,0.5434,0.5436,0.5438,0.5449,0.5452,0.5415,0.5415,0.5415,0.5415,0,0.4597,0.4654,0.4682,0.4774,0.482,0.487,0.4941,0.4981,0.5018,0.5068,0.514,0.5211,0.5289,0.5311,0.5348,0.5396,0.5399,0.5419,0.5434,0.5435,0.5447,0.5451,0.5411,0.5412,0.5413,0.5413,0,0,0.4567,0.4692,0.4702,0.4744,0.4837,0.4884,0.4937,0.5013,0.5046,0.5111,0.5159,0.5248,0.5267,0.5314,0.5358,0.5389,0.5406,0.5406,0.5409,0.5405,0.5465,0.545,0.5453,0.5429,0.543,0.543,0.5459,0,0.4586,0.4683,0.4741,0.4815,0.487,0.4925,0.4973,0.5035,0.5084,0.5139,0.5193,0.5255,0.5275,0.5304,0.5337,0.5397,0.5419,0.5395,0.5475,0.5478,0.5455,0.5459,0.5443,0.5466,0.5463,0.5464,0.5465,0,0.4621,0.4683,0.4763,0.485,0.4876,0.4916,0.4991,0.5042,0.5115,0.5148,0.52,0.5244,0.5305,0.5313,0.5398,0.538,0.5417,0.5451,0.5453,0.5464,0.5472,0.5471,0.5475,0.5478,0.5472,0.5471,0.5471,0,0.4592,0.4697,0.4758,0.4793,0.4896,0.4924,0.4968,0.5041,0.5083,0.5148,0.5177,0.5248,0.5288,0.5343,0.5406,0.5406,0.5484,0.5498,0.5515,0.5514,0.553,0.5529,0.5541,0.5551,0.5551,0.5551,0.5551,0,0.4607,0.4654,0.4747,0.4784,0.4839,0.4905,0.4958,0.5007,0.5071,0.5121,0.5173,0.5219,0.5298,0.5353,0.5403,0.5466,0.5483,0.5513,0.5526,0.5509,0.5505,0.5535,0.5535,0.5552,0.5552,0.5552,0.5551,0,0.4585,0.4649,0.4719,0.4811,0.4835,0.4871,0.4951,0.499,0.5041,0.5103,0.5122,0.5203,0.5271,0.5338,0.5431,0.5464,0.5527,0.5543,0.5502,0.5509,0.5523,0.5521,0.5556,0.5564,0.5567,0.5567,0.5567,0,0.4591,0.4628,0.4723,0.4759,0.4803,0.486,0.4903,0.497,0.5013,0.5099,0.5128,0.52,0.5261,0.5368,0.5436,0.5507,0.5527,0.5534,0.5538,0.552,0.5528,0.5526,0.553,0.5532,0.5532,0.5531,0.5531,0,0.4595,0.4624,0.4683,0.4754,0.4803,0.4862,0.4923,0.495,0.5029,0.5074,0.5144,0.5192,0.5285,0.5357,0.5435,0.5483,0.5521,0.5529,0.5537,0.5521,0.5496,0.5511,0.5498,0.5528,0.5529,0.5529,0.5529,0.5529,0.4588,0.4624,0.4696,0.4761,0.4813,0.4869,0.4911,0.4967,0.5026,0.5106,0.5143,0.5213,0.5287,0.5396,0.5443,0.55,0.551,0.5521,0.5524,0.5526,0.5523,0.5485,0.5515,0.5515,0.5515,0.5515,0.5515,0,0.4595,0.4645,0.4703,0.4786,0.4837,0.4866,0.4935,0.4977,0.5038,0.5102,0.5161,0.5242,0.5311,0.5384,0.5458,0.549,0.5509,0.5507,0.5506,0.5517,0.551,0.5496,0.5491,0.5491,0.5491,0.5491,0.5491,0.5491,0.4605,0.4668,0.4706,0.4796,0.4846,0.4914,0.4951,0.5003,0.5055,0.5143,0.52,0.5247,0.5315,0.5395,0.546,0.548,0.5506,0.5499,0.5524,0.5516,0.5517,0.5519,0.5507,0.5504,0.5504,0.5527,0.5527,0.5527]}]]